"Period start","avg(HW err(1)/warn(2) (#))","avg(Visibility (m))","avg(Weather code (#))","avg(Precip intensity (mm/h))","min(HW err(1)/warn(2) (#))","max(HW err(1)/warn(2) (#))","std(HW err(1)/warn(2) (#))","med(HW err(1)/warn(2) (#))","min(Visibility (m))","max(Visibility (m))","std(Visibility (m))","med(Visibility (m))","min(Weather code (#))","max(Weather code (#))","std(Weather code (#))","med(Weather code (#))","min(Precip intensity (mm/h))","max(Precip intensity (mm/h))","std(Precip intensity (mm/h))","med(Precip intensity (mm/h))"
2014-03-17 00:00:00,2,31334,0,0.00,2,2,0,2,23134,41711,5546,31390,0,0,0,0,0.00,0.00,0.00,0.00
2014-03-17 00:10:00,2,38261,0,0.00,2,2,0,2,30826,46152,5083,37589,0,0,0,0,0.00,0.00,0.00,0.00
2014-03-17 00:20:00,2,30248,0,0.00,2,2,0,2,25113,40512,5003,29434,0,0,0,0,0.00,0.00,0.00,0.00
2014-03-17 00:30:00,2,30519,0,0.00,2,2,0,2,16758,45835,8624,30887,0,0,0,0,0.00,0.00,0.00,0.00
2014-03-17 00:40:00,2,34978,0,0.00,2,2,0,2,20671,47145,8382,34752,0,0,0,0,0.00,0.00,0.00,0.00
2014-03-17 00:50:00,2,32884,0,0.00,2,2,0,2,22629,43947,6994,31824,0,0,0,0,0.00,0.00,0.00,0.00
2014-03-17 01:00:00,2,36018,0,0.00,2,2,0,2,30518,50000,6085,33248,0,0,0,0,0.00,0.00,0.00,0.00
2014-03-17 01:10:00,2,41093,0,0.00,2,2,0,2,25075,50000,7381,42518,0,0,0,0,0.00,0.00,0.00,0.00
2014-03-17 01:20:00,2,41022,0,0.00,2,2,0,2,35073,50000,4241,41620,0,0,0,0,0.00,0.00,0.00,0.00
2014-03-17 01:30:00,2,36358,0,0.00,2,2,0,2,25668,50000,6337,37870,0,0,0,0,0.00,0.00,0.00,0.00
2014-03-17 01:40:00,2,31457,0,0.00,2,2,0,2,24962,37436,3721,31779,0,0,0,0,0.00,0.00,0.00,0.00
2014-03-17 01:50:00,2,26384,0,0.00,2,2,0,2,15357,35386,6893,24368,0,0,0,0,0.00,0.00,0.00,0.00
2014-03-17 02:00:00,2,27384,0,0.00,2,2,0,2,19427,39140,5955,26446,0,0,0,0,0.00,0.00,0.00,0.00
2014-03-17 02:10:00,2,24685,0,0.00,2,2,0,2,18005,37504,5898,23932,0,0,0,0,0.00,0.00,0.00,0.00
2014-03-17 02:20:00,2,25915,0,0.00,2,2,0,2,20271,34390,5135,23135,0,0,0,0,0.00,0.00,0.00,0.00
2014-03-17 02:30:00,2,34103,0,0.00,2,2,0,2,27377,43631,5283,33726,0,0,0,0,0.00,0.00,0.00,0.00
2014-03-17 02:40:00,2,24814,0,0.00,2,2,0,2,21068,36158,4695,22962,0,0,0,0,0.00,0.00,0.00,0.00
2014-03-17 02:50:00,2,29480,0,0.00,2,2,0,2,18228,39406,6750,30488,0,0,0,0,0.00,0.00,0.00,0.00
2014-03-17 03:00:00,2,25529,0,0.00,2,2,0,2,21479,32393,3613,23952,0,0,0,0,0.00,0.00,0.00,0.00
2014-03-17 03:10:00,2,30354,0,0.00,2,2,0,2,22694,38066,5172,30016,0,0,0,0,0.00,0.00,0.00,0.00
2014-03-17 03:20:00,2,28457,0,0.00,2,2,0,2,25028,33767,2791,27988,0,0,0,0,0.00,0.00,0.00,0.00
2014-03-17 03:30:00,2,32419,0,0.00,2,2,0,2,23466,39446,4986,32629,0,0,0,0,0.00,0.00,0.00,0.00
2014-03-17 03:40:00,2,30684,0,0.00,2,2,0,2,22117,45252,7246,28043,0,0,0,0,0.00,0.00,0.00,0.00
2014-03-17 03:50:00,2,35798,0,0.00,2,2,0,2,23661,48842,7982,35820,0,0,0,0,0.00,0.00,0.00,0.00
2014-03-17 04:00:00,2,32910,0,0.00,2,2,0,2,22156,46567,8799,30010,0,0,0,0,0.00,0.00,0.00,0.00
2014-03-17 04:10:00,2,33624,0,0.00,2,2,0,2,27524,44648,5250,32652,0,0,0,0,0.00,0.00,0.00,0.00
2014-03-17 04:20:00,2,29985,0,0.00,2,2,0,2,18420,40193,6482,29684,0,0,0,0,0.00,0.00,0.00,0.00
2014-03-17 04:30:00,2,32169,0,0.00,2,2,0,2,25451,41218,5455,29831,0,0,0,0,0.00,0.00,0.00,0.00
2014-03-17 04:40:00,2,38237,0,0.00,2,2,0,2,28854,47277,4554,39197,0,0,0,0,0.00,0.00,0.00,0.00
2014-03-17 04:50:00,2,35772,0,0.00,2,2,0,2,20690,48931,9313,38857,0,0,0,0,0.00,0.00,0.00,0.00
2014-03-17 05:00:00,2,35696,0,0.00,2,2,0,2,24761,49002,7541,35941,0,0,0,0,0.00,0.00,0.00,0.00
2014-03-17 05:10:00,2,33272,0,0.00,2,2,0,2,25795,42694,5478,33631,0,0,0,0,0.00,0.00,0.00,0.00
2014-03-17 05:20:00,2,36808,0,0.00,2,2,0,2,29004,44192,4386,37115,0,0,0,0,0.00,0.00,0.00,0.00
2014-03-17 05:30:00,2,27131,0,0.00,2,2,0,2,19959,39017,5940,26572,0,0,0,0,0.00,0.00,0.00,0.00
2014-03-17 05:40:00,2,34446,0,0.00,2,2,0,2,27327,43827,4485,33126,0,0,0,0,0.00,0.00,0.00,0.00
2014-03-17 05:50:00,2,30842,0,0.00,2,2,0,2,21433,39568,4966,31936,0,0,0,0,0.00,0.00,0.00,0.00
2014-03-17 06:00:00,2,30176,0,0.00,2,2,0,2,19917,45109,7653,29733,0,0,0,0,0.00,0.00,0.00,0.00
2014-03-17 06:10:00,2,36536,0,0.00,2,2,0,2,31659,42150,3597,36046,0,0,0,0,0.00,0.00,0.00,0.00
2014-03-17 06:20:00,2,33749,0,0.00,2,2,0,2,24739,43533,5318,32756,0,0,0,0,0.00,0.00,0.00,0.00
2014-03-17 06:30:00,2,32272,0,0.00,2,2,0,2,25238,41623,5459,31534,0,0,0,0,0.00,0.00,0.00,0.00
2014-03-17 06:40:00,2,30395,0,0.00,2,2,0,2,24029,37914,4303,29736,0,0,0,0,0.00,0.00,0.00,0.00
2014-03-17 06:50:00,2,32049,0,0.00,2,2,0,2,27802,38000,3737,30988,0,0,0,0,0.00,0.00,0.00,0.00
2014-03-17 07:00:00,2,33225,0,0.00,2,2,0,2,27575,41351,4212,33022,0,0,0,0,0.00,0.00,0.00,0.00
2014-03-17 07:10:00,2,36105,0,0.00,2,2,0,2,29617,46972,4813,34530,0,0,0,0,0.00,0.00,0.00,0.00
2014-03-17 07:20:00,2,28952,0,0.00,2,2,0,2,25607,32377,2277,29118,0,0,0,0,0.00,0.00,0.00,0.00
2014-03-17 07:30:00,2,33122,0,0.00,2,2,0,2,29255,38602,2824,33728,0,0,0,0,0.00,0.00,0.00,0.00
2014-03-17 07:40:00,2,36390,0,0.00,2,2,0,2,30397,41339,3633,37258,0,0,0,0,0.00,0.00,0.00,0.00
2014-03-17 07:50:00,2,33483,0,0.00,2,2,0,2,26540,38702,3599,32862,0,0,0,0,0.00,0.00,0.00,0.00
2014-03-17 08:00:00,2,38293,0,0.00,2,2,0,2,33430,42764,2939,39180,0,0,0,0,0.00,0.00,0.00,0.00
2014-03-17 08:10:00,2,38579,0,0.00,2,2,0,2,32444,43622,3167,39120,0,0,0,0,0.00,0.00,0.00,0.00
2014-03-17 08:20:00,2,36639,0,0.00,2,2,0,2,30948,43363,3516,36112,0,0,0,0,0.00,0.00,0.00,0.00
2014-03-17 08:30:00,2,39589,0,0.00,2,2,0,2,35334,46880,3810,39217,0,0,0,0,0.00,0.00,0.00,0.00
2014-03-17 08:40:00,2,38995,0,0.00,2,2,0,2,34874,41896,2460,39630,0,0,0,0,0.00,0.00,0.00,0.00
2014-03-17 08:50:00,2,37839,0,0.00,2,2,0,2,30504,45450,4026,37722,0,0,0,0,0.00,0.00,0.00,0.00
2014-03-17 09:00:00,2,39451,0,0.00,2,2,0,2,32172,46234,4510,40317,0,0,0,0,0.00,0.00,0.00,0.00
2014-03-17 09:10:00,2,42228,0,0.00,2,2,0,2,36707,49931,4090,41050,0,0,0,0,0.00,0.00,0.00,0.00
2014-03-17 09:20:00,2,38640,0,0.00,2,2,0,2,34124,42878,3098,38554,0,0,0,0,0.00,0.00,0.00,0.00
2014-03-17 09:30:00,2,43168,0,0.00,2,2,0,2,38112,47921,3138,43903,0,0,0,0,0.00,0.00,0.00,0.00
2014-03-17 09:40:00,2,44915,0,0.00,2,2,0,2,39618,49339,3107,44866,0,0,0,0,0.00,0.00,0.00,0.00
2014-03-17 09:50:00,2,41674,0,0.00,2,2,0,2,37839,48019,2630,41947,0,0,0,0,0.00,0.00,0.00,0.00
2014-03-17 10:00:00,2,37814,0,0.00,2,2,0,2,32426,47591,4542,36998,0,0,0,0,0.00,0.00,0.00,0.00
2014-03-17 10:10:00,2,41595,0,0.00,2,2,0,2,34399,46688,3822,41784,0,0,0,0,0.00,0.00,0.00,0.00
2014-03-17 10:20:00,2,40727,0,0.00,2,2,0,2,36918,43765,1849,40712,0,0,0,0,0.00,0.00,0.00,0.00
2014-03-17 10:30:00,2,42276,0,0.00,2,2,0,2,34738,50000,5936,43006,0,0,0,0,0.00,0.00,0.00,0.00
2014-03-17 10:40:00,2,48066,0,0.00,2,2,0,2,42263,50000,2817,49608,0,0,0,0,0.00,0.00,0.00,0.00
2014-03-17 10:50:00,2,46818,0,0.00,2,2,0,2,42498,50000,2554,47181,0,0,0,0,0.00,0.00,0.00,0.00
2014-03-17 11:00:00,2,44156,0,0.00,2,2,0,2,38771,50000,3150,44485,0,0,0,0,0.00,0.00,0.00,0.00
2014-03-17 11:10:00,2,43633,0,0.00,2,2,0,2,37379,46451,2855,44430,0,0,0,0,0.00,0.00,0.00,0.00
2014-03-17 11:20:00,2,47512,0,0.00,2,2,0,2,41485,50000,2403,48057,0,0,0,0,0.00,0.00,0.00,0.00
2014-03-17 11:30:00,2,43018,0,0.00,2,2,0,2,37124,50000,4094,41020,0,0,0,0,0.00,0.00,0.00,0.00
2014-03-17 11:40:00,2,44830,0,0.00,2,2,0,2,36778,50000,3982,46212,0,0,0,0,0.00,0.00,0.00,0.00
2014-03-17 11:50:00,2,45180,0,0.00,2,2,0,2,40527,48441,2626,44942,0,0,0,0,0.00,0.00,0.00,0.00
2014-03-17 12:00:00,2,46189,0,0.00,2,2,0,2,39473,50000,3115,47080,0,0,0,0,0.00,0.00,0.00,0.00
2014-03-17 12:10:00,2,44794,0,0.00,2,2,0,2,38410,50000,3294,45628,0,0,0,0,0.00,0.00,0.00,0.00
2014-03-17 12:20:00,2,47708,0,0.00,2,2,0,2,39564,50000,3078,48917,0,0,0,0,0.00,0.00,0.00,0.00
2014-03-17 12:30:00,2,45365,0,0.00,2,2,0,2,40831,50000,3092,44613,0,0,0,0,0.00,0.00,0.00,0.00
2014-03-17 12:40:00,2,46739,0,0.00,2,2,0,2,39845,50000,3592,47565,0,0,0,0,0.00,0.00,0.00,0.00
2014-03-17 12:50:00,2,45626,0,0.00,2,2,0,2,40835,50000,3309,45450,0,0,0,0,0.00,0.00,0.00,0.00
2014-03-17 13:00:00,2,47093,0,0.00,2,2,0,2,40161,50000,2786,47567,0,0,0,0,0.00,0.00,0.00,0.00
2014-03-17 13:10:00,2,45378,0,0.00,2,2,0,2,38146,50000,4514,45920,0,0,0,0,0.00,0.00,0.00,0.00
2014-03-17 13:20:00,2,42139,0,0.00,2,2,0,2,35438,48253,4231,42488,0,0,0,0,0.00,0.00,0.00,0.00
2014-03-17 13:30:00,2,43175,0,0.00,2,2,0,2,36747,49277,4142,42288,0,0,0,0,0.00,0.00,0.00,0.00
2014-03-17 13:40:00,2,42354,0,0.00,2,2,0,2,37845,45571,2686,42736,0,0,0,0,0.00,0.00,0.00,0.00
2014-03-17 13:50:00,2,40576,0,0.00,2,2,0,2,36045,44267,2228,40162,0,0,0,0,0.00,0.00,0.00,0.00
2014-03-17 14:00:00,2,42097,0,0.00,2,2,0,2,38673,47287,2929,40938,0,0,0,0,0.00,0.00,0.00,0.00
2014-03-17 14:10:00,2,41506,0,0.00,2,2,0,2,32693,44291,3430,42273,0,0,0,0,0.00,0.00,0.00,0.00
2014-03-17 14:20:00,2,38519,0,0.00,2,2,0,2,35082,44697,3245,37328,0,0,0,0,0.00,0.00,0.00,0.00
2014-03-17 14:30:00,2,41215,0,0.00,2,2,0,2,35057,47853,3716,41299,0,0,0,0,0.00,0.00,0.00,0.00
2014-03-17 14:40:00,2,40580,0,0.00,2,2,0,2,35926,44765,2625,40525,0,0,0,0,0.00,0.00,0.00,0.00
2014-03-17 14:50:00,2,42538,0,0.00,2,2,0,2,33899,50000,5084,43555,0,0,0,0,0.00,0.00,0.00,0.00
2014-03-17 15:00:00,2,40978,0,0.00,2,2,0,2,31844,47594,4850,41014,0,0,0,0,0.00,0.00,0.00,0.00
2014-03-17 15:10:00,2,36473,0,0.00,2,2,0,2,31567,43301,3149,36078,0,0,0,0,0.00,0.00,0.00,0.00
2014-03-17 15:20:00,2,36876,0,0.00,2,2,0,2,34334,39318,1534,36842,0,0,0,0,0.00,0.00,0.00,0.00
2014-03-17 15:30:00,2,35548,0,0.00,2,2,0,2,32452,40624,2852,34594,0,0,0,0,0.00,0.00,0.00,0.00
2014-03-17 15:40:00,2,35823,0,0.00,2,2,0,2,30398,46289,4625,34629,0,0,0,0,0.00,0.00,0.00,0.00
2014-03-17 15:50:00,2,36265,0,0.00,2,2,0,2,31246,42553,3849,35771,0,0,0,0,0.00,0.00,0.00,0.00
2014-03-17 16:00:00,2,32187,0,0.00,2,2,0,2,29097,36702,2075,32004,0,0,0,0,0.00,0.00,0.00,0.00
2014-03-17 16:10:00,2,38128,0,0.00,2,2,0,2,30754,43685,3813,38576,0,0,0,0,0.00,0.00,0.00,0.00
2014-03-17 16:20:00,2,31802,0,0.00,2,2,0,2,28469,35897,2294,31778,0,0,0,0,0.00,0.00,0.00,0.00
2014-03-17 16:30:00,2,22546,28,0.00,2,2,0,2,14506,32503,6171,20310,0,71,35,0,0.00,0.00,0.00,0.00
2014-03-17 16:40:00,2,27575,38,0.00,2,2,0,2,21938,34754,3801,26057,0,71,28,41,0.00,0.00,0.00,0.00
2014-03-17 16:50:00,2,25637,38,0.00,2,2,0,2,18627,33904,4575,25448,0,78,38,36,0.00,0.00,0.00,0.00
2014-03-17 17:00:00,2,14187,74,0.11,2,2,0,2,11157,19680,2682,13526,71,78,3,71,0.00,0.30,0.11,0.08
2014-03-17 17:10:00,2,22379,60,0.01,2,2,0,2,15850,26691,3183,22100,0,78,30,71,0.00,0.05,0.02,0.00
2014-03-17 17:20:00,2,28108,0,0.00,2,2,0,2,22365,31312,3012,29298,0,0,0,0,0.00,0.00,0.00,0.00
2014-03-17 17:30:00,2,33029,0,0.00,2,2,0,2,27409,42137,4534,32370,0,0,0,0,0.00,0.00,0.00,0.00
2014-03-17 17:40:00,2,33775,0,0.00,2,2,0,2,28543,37462,2942,35080,0,0,0,0,0.00,0.00,0.00,0.00
2014-03-17 17:50:00,2,31089,0,0.00,2,2,0,2,26054,34660,3137,32048,0,0,0,0,0.00,0.00,0.00,0.00
2014-03-17 18:00:00,2,33093,0,0.00,2,2,0,2,29570,37564,2807,31774,0,0,0,0,0.00,0.00,0.00,0.00
2014-03-17 18:10:00,2,35058,0,0.00,2,2,0,2,29454,41810,4407,33842,0,0,0,0,0.00,0.00,0.00,0.00
2014-03-17 18:20:00,2,35038,0,0.00,2,2,0,2,30606,40765,3573,34616,0,0,0,0,0.00,0.00,0.00,0.00
2014-03-17 18:30:00,2,33138,0,0.00,2,2,0,2,30390,36100,1688,33037,0,0,0,0,0.00,0.00,0.00,0.00
2014-03-17 18:40:00,2,28475,0,0.00,2,2,0,2,24250,33167,2498,28628,0,0,0,0,0.00,0.00,0.00,0.00
2014-03-17 18:50:00,2,30469,0,0.00,2,2,0,2,27286,35159,2095,30063,0,0,0,0,0.00,0.00,0.00,0.00
2014-03-17 19:00:00,2,28434,0,0.00,2,2,0,2,24972,32746,2186,28330,0,0,0,0,0.00,0.00,0.00,0.00
2014-03-17 19:10:00,2,27601,0,0.00,2,2,0,2,23461,36012,3847,26294,0,0,0,0,0.00,0.00,0.00,0.00
2014-03-17 19:20:00,2,34273,0,0.00,2,2,0,2,28144,42931,4676,32650,0,0,0,0,0.00,0.00,0.00,0.00
2014-03-17 19:30:00,2,31966,0,0.00,2,2,0,2,26663,37523,3050,32098,0,0,0,0,0.00,0.00,0.00,0.00
2014-03-17 19:40:00,2,32237,0,0.00,2,2,0,2,29405,36438,2191,32225,0,0,0,0,0.00,0.00,0.00,0.00
2014-03-17 19:50:00,2,34639,0,0.00,2,2,0,2,30899,39290,3197,33280,0,0,0,0,0.00,0.00,0.00,0.00
2014-03-17 20:00:00,2,32025,0,0.00,2,2,0,2,25433,39512,4988,31072,0,0,0,0,0.00,0.00,0.00,0.00
2014-03-17 20:10:00,2,32988,0,0.00,2,2,0,2,26337,39685,4294,34162,0,0,0,0,0.00,0.00,0.00,0.00
2014-03-17 20:20:00,2,31562,0,0.00,2,2,0,2,26658,35836,3542,31244,0,0,0,0,0.00,0.00,0.00,0.00
2014-03-17 20:30:00,2,29220,0,0.00,2,2,0,2,24945,32664,2479,30166,0,0,0,0,0.00,0.00,0.00,0.00
2014-03-17 20:40:00,2,34338,0,0.00,2,2,0,2,24848,41695,4386,34850,0,0,0,0,0.00,0.00,0.00,0.00
2014-03-17 20:50:00,2,33610,0,0.00,2,2,0,2,29713,39492,3156,32420,0,0,0,0,0.00,0.00,0.00,0.00
2014-03-17 21:00:00,2,28989,0,0.00,2,2,0,2,23926,33421,2810,29326,0,0,0,0,0.00,0.00,0.00,0.00
2014-03-17 21:10:00,2,28075,0,0.00,2,2,0,2,20862,33801,4081,28821,0,0,0,0,0.00,0.00,0.00,0.00
2014-03-17 21:20:00,2,30359,0,0.00,2,2,0,2,25570,35334,3581,30958,0,0,0,0,0.00,0.00,0.00,0.00
2014-03-17 21:30:00,2,32344,0,0.00,2,2,0,2,27749,38167,2721,32680,0,0,0,0,0.00,0.00,0.00,0.00
2014-03-17 21:40:00,2,32942,0,0.00,2,2,0,2,24019,40221,4408,31604,0,0,0,0,0.00,0.00,0.00,0.00
2014-03-17 21:50:00,2,34576,0,0.00,2,2,0,2,26145,39360,4393,36282,0,0,0,0,0.00,0.00,0.00,0.00
2014-03-17 22:00:00,2,34162,0,0.00,2,2,0,2,29044,37297,2799,35032,0,0,0,0,0.00,0.00,0.00,0.00
2014-03-17 22:10:00,2,36927,0,0.00,2,2,0,2,27251,43489,5003,38164,0,0,0,0,0.00,0.00,0.00,0.00
2014-03-17 22:20:00,2,32333,0,0.00,2,2,0,2,21125,40881,5603,33382,0,0,0,0,0.00,0.00,0.00,0.00
2014-03-17 22:30:00,2,32172,0,0.00,2,2,0,2,26826,38876,3820,31969,0,0,0,0,0.00,0.00,0.00,0.00
2014-03-17 22:40:00,2,30786,0,0.00,2,2,0,2,24262,37734,4035,29550,0,0,0,0,0.00,0.00,0.00,0.00
2014-03-17 22:50:00,2,29591,75,0.01,2,2,0,2,22297,38436,4609,29615,71,78,3,77,0.00,0.05,0.02,0.00
2014-03-17 23:00:00,2,22841,71,0.02,2,2,0,2,16621,31626,3869,21915,71,71,0,71,0.00,0.20,0.06,0.00
2014-03-17 23:10:00,2,32316,31,0.00,2,2,0,2,24414,38705,4811,34150,0,78,38,0,0.00,0.00,0.00,0.00
2014-03-17 23:20:00,2,32849,0,0.00,2,2,0,2,23289,43190,6296,30834,0,0,0,0,0.00,0.00,0.00,0.00
2014-03-17 23:30:00,2,25677,45,0.00,2,2,0,2,18408,35543,6104,23225,0,78,37,71,0.00,0.00,0.00,0.00
2014-03-17 23:40:00,2,28850,22,0.01,2,2,0,2,21043,36522,3819,29154,0,77,33,0,0.00,0.05,0.02,0.00
2014-03-17 23:50:00,2,34136,23,0.00,2,2,0,2,30907,39511,3036,33148,0,78,36,0,0.00,0.00,0.00,0.00
